Volver al catálogo

COSMOS 2166

ActivoNavegaciónPO
NORAD 21780·PAYLOAD·🇷🇺 Russia

Lanzado Nov 12, 1991 desde Plesetsk Cosmodrome

Loading…

Próximos Pases (próximas 24 horas)

TLE

ActualizadoSource: Space-Track

Época: Sep 14, 2026, 07:24 UTC

1 21780U 91077B   26257.30870483  .00000024  00000-0  74322-4 0  9995
2 21780  82.6026 189.4790 0003053 339.5101 188.0114 12.63450206606425

Sigue COSMOS 2166 en tiempo real con AllMySat

Download on the App Store